Dauntless Aviation
Airports Europe United Kingdom
EGLC
LCY

London City Airport

London, UNITED KINGDOM

Airport Info
Suggest Updated Information for this Airport

Location

Latitude / Longitude: 51°30'19"N / 0°3'19"E
  51°30.318'N / 0°3.318'E
  51.5053 / 0.0553

Nearby radio navigation aids

LCY CITY NDB on field.

Runway Information

Runway 10 /28

Dimensions: 4948 x 98 ft.
Surface: ASP
 
Runway 10
Runway 28
Latitude: 51.505528 51.504922
Longitude: 0.045753 0.064953
Elevation: 16 ft. 16 ft.
Runway true heading: 91.1 271.1
 

Instrument Procedures

  Aerodrome Chart
  Aircraft Parking/Docking Chart
  Control Zone and Control Area Chart

STARs (Standard Terminal Arrivals)

  Standard Instrument Arrival Coding Tables Rwy 09/27 JACKO 1L/ 1M
  Standard Instrument Arrival Coding Tables Rwy 09/27 GODLU 1G/ 1H
  Standard Instrument Arrival Coding Tables Rwy 09/27 GODLU 1J/ 1K/ 1L
  RNAV1 (DME/DME or GNSS) Transition Arrival Chart - Instrument Rwy 27 LAVNO 1G 1J
  RNAV1 (DME/DME or GNSS) Transition Arrival Chart - Instrument Rwy 09 ODLEG 1G 1J
  RNAV5 (VOR/DME/ DME/DME or GNSS) STAR - Instrument Rwy 09/27 JACKO 1A 1B 1D
  RNAV5 (VOR/DME/ DME/DME or GNSS) STAR - Instrument Rwy 09/27 GODLU 1A 1C 1D 1F
  RNAV5 (VOR/DME/ DME/DME or GNSS) STAR - Instrument Rwy 09/27 JACKO 1H
  RNAV5 (VOR/DME/ DME/DME or GNSS) STAR - Instrument Rwy 09/27 JACKO 1L 1M
  RNAV5 (VOR/DME/ DME/DME or GNSS) STAR - Instrument Rwy 09/27 GODLU 1G 1H
  RNAV5 (VOR/DME/ DME/DME or GNSS) STAR - Instrument Rwy 09/27 GODLU 1J 1K 1L
  Standard Instrument Arrival Coding Tables Rwy 09/27 JACKO 1A/ 1B/ 1D
  Standard Instrument Arrival Coding Tables Rwy 09/27 GODLU 1A/ 1C/ 1D/ 1F
  Standard Instrument Arrival Coding Tables Rwy 09/27 JACKO 1H

IAPs (Instrument Approach Procedures)

  ILS (5.5°GP) /DME/NDB (L) Rwy 09 (Aircraft CAT A/B/C)
  LOC/DME/NDB (L) Rwy 09
  LOC/DME/NDB (L) Rwy 27 (Aircraft CAT A/B/C)
  Visual Approach Profile Rwy 27
  Visual Approach Profile Rwy 09
  ILS (5.5°GP) /DME/NDB (L) Rwy 27 (Aircraft CAT A/B/C)
  Aerodrome Information (Textual)
  Transition Coding Tables Rwy 27 LAVNO 1G/ 1J
  Transition Coding Tables Rwy 09 ODLEG 1G 1J
  RNAV Hold Coding Tables GODLU/ OKVAP/ JACKO/ ROPMU
  ATC Surveillance Minimum Altitude Chart

Departure Procedures

  Standard Instrument Departure Coding Tables Rwy 09 BPK 1H/ CPT 1H
  Standard Instrument Departure Coding Tables Rwy 09 CLN 1H/ Rwy 27 CLN 1A
  SID - Instrument (SID) Rwy 09/27 DVR 5T 5U LYD 5T 5U
  SID - Instrument (SID) Rwy 09/27 CLN 7T 7U
  SID - Instrument (SID) Rwy 09/27 BPK 5T 5U CPT 6T 6U
  RNAV1 (DME/DME or GNSS) SID - Instrument (SID) Rwy 27 BPK 1A CPT 1A
  RNAV1 (DME/DME or GNSS) SID - Instrument (SID) Rwy 09 BPK 1H CPT 1H
  RNAV1 (DME/DME or GNSS) SID - Instrument (SID) Rwy 09/27 CLN 1A 1H
  Standard Instrument Departure Coding Tables Rwy 27 BPK 1A/ CPT 1A
  RNAV1 (DME/DME or GNSS) SID - Instrument (SID) Rwy 09/27 EKNIV 1A 1H
  Standard Instrument Departure Coding Tables Rwy 09 EKNIV 1H/ Rwy 27 EKNIV 1A
Satellite photo at:
Airport distance calculator
From:
Weather Reports

METAR

EGLC

EGLC 201220Z AUTO 24016KT 9999 OVC023 14/09 Q1007
EGKB
11.4nm S
EGKB 201220Z 23012KT 200V260 9999 BKN020 12/09 Q1008
EGWU
17.8nm W
EGWU 201223Z 26016KT 9999 FEW020 BKN026 14/09 Q1007 BLU NOSIG
EGLL
18.9nm SW
EGLL 201220Z AUTO 25016KT 9999 BKN024 14/09 Q1007 NOSIGNOSIG
EGSS
23.5nm N
EGSS 201220Z AUTO 25013KT 9999 OVC016 13/10 Q1006
EGKK
23.8nm S
EGKK 201220Z 24011KT 9999 BKN023 14/09 Q1008

TAF

EGLC
TAF EGLC 201106Z 2012/2021 24014KT 9999 FEW020 TEMPO 2012/2014 26017G27KT PROB30 TEMPO 2012/2014 7000 BKN010
EGKB
11.4nm S
TAF EGKB 201106Z 2012/2021 24012KT 9999 FEW020
EGWU
17.8nm W
TAF EGWU 201047Z 2012/2106 26012KT 9999 SCT030 PROB40 TEMPO 2012/2014 27015G25KT SCT022 BECMG 2021/2023 BKN008 TEMPO 2022/2102 18015G25KT 4000 RA BECMG 2100/2102 FEW008 BECMG 2104/2106 18015G25KT
EGLL
18.9nm SW
TAF EGLL 201103Z 2012/2118 24014KT 9999 BKN020 BECMG 2021/2024 18012KT TEMPO 2022/2102 19018G28KT 6000 RA BKN010 BECMG 2106/2109 20018G30KT TEMPO 2111/2118 7000 SHRA PROB30 TEMPO 2111/2118 21022G42KT 4000 +SHRA BKN012
EGSS
23.5nm N
TAF EGSS 201058Z 2012/2118 25015KT 9999 BKN012 BECMG 2012/2015 SCT020 TEMPO 2012/2014 26016G26KT BKN010 BECMG 2018/2021 18012KT TEMPO 2022/2103 6000 RA BKN012 PROB30 TEMPO 2022/2103 4000 RADZ BKN008 TEMPO 2103/2118 7000 SHRA BECMG 2107/2110 19018G28KT PROB30 TEMPO 2107/2115 21025G38KT 4000 +SHRA BECMG 2115/2118 21015KT
EGKK
23.8nm S
TAF EGKK 201055Z 2012/2118 24012KT 9999 SCT020 BECMG 2020/2023 17012KT TEMPO 2023/2102 19015G25KT 6000 RA BKN011 PROB30 TEMPO 2023/2102 4000 RADZ BKN008 BECMG 2102/2105 23015G25KT PROB30 TEMPO 2104/2109 7000 SHRA TEMPO 2109/2118 23020G35KT 7000 SHRA PROB30 TEMPO 2111/2118 23030G45KT 4000 +SHRA BKN014CB
Safelog

 

Dauntless Aviation

© 2007-2017 Dauntless Aviation, all rights reserved
Information provided via PilotNav comes from a variety of official and unofficial data sources. As errors are possible, do not use PilotNav for primary flight planning purposes. Verify any information that you receive via PilotNav with current and canonical charts and other official documents. The material in this database is subject to database copyrights held by Dauntless Aviation and may not be copied without the express permission of Dauntless Aviation - licenses for use of part of all of this data are available for purchase; enquire via the Dauntless Aviation helpdesk. A number of mechanisms and markers exist in the database to protect against and identify infringement / copyright. Automated queries against this website are stictly prohibited, and all activity is logged and analyzed.